SL-12 R/B(2), 12850

Orbit data source: Space-Track

SL-12 R/B(2), 12850 is space debris in GEO originally from a launch on Thu, 30 Jul 1981 UTC launched from the Tyuratam Missile And Space Complex (TTMTR). Debris objects in space refer to the collection of defunct objects orbiting the Earth. Examples of debris include non-operational satellites, rocket bodies, and fragments generated from explosions, collisions, or faulty payload assembly.

Not visible in the next 10 days
Identifier
12850, 1981-069F
Orbit
GEO
Country
Flag of CISCIS
Related business
Manufacturer
NPO Energiya
Mission
Spacecraft
Bus & Motor
BLOK DM, Unknown motor
Mass
2,440 kg wet, 2,440 kg dry
Launch date (UTC)
1981-07-30 (45 years ago)
Launch vehicle
Unknown
Launch site
Tyuratam Missile And Space Complex (TTMTR)
Object type
Payload
Rocket body
Debris
Shape & HBR
CYL, 1.1 m
Radar Cross Section
Large (>1 m²)

Expand to show TLE details & history
Last TLE update: 19 hours ago

TLE from 19 hours ago
0 SL-12 R/B(2)
1 12850U 81069F   26264.27699640 -.00000148  00000-0  00000-0 0  9997
2 12850   7.9280 299.0581 0020529 194.1760 335.6313  0.97701404117166
Epoch: 2026-09-21T06:38Z
TLE epoch observation values (Epoch: 2026-09-21T06:38:52.488Z)
Latitude
1.40169°
Longitude
8.99276°
Altitude
36,442.146 km
Speed
3.054 km/s
True Right ascension
07h 15m 28s
True Declination
1° 24' 01"
Sunlit
Object was in daylight at epoch
Visualization orbit readout
Latitude
Unknown
Longitude
Unknown
Altitude
Unknown
Speed
Unknown
Apparent Right ascension
Unknown
Apparent Declination
Unknown
Sunlit
N/A
Visualization observer readout
Local Sidereal Time
18:20:10
Azimuth
Unknown
Elevation
Unknown
Doppler factor
Unknown
Orbital elements
Apogee altitude
36,612.015 km
Perigee altitude
36,435.868 km
Semi-major axis
42,902.079 km
Eccentricity
0.00205
Inclination
7.928°
RAAN
299.0581°
Arg. of periapsis
194.176°
True anomaly
335.53401°
Mean anomaly
335.6313°
Eccentric anomaly
335.58268°
Mean motion
0.24424 °/min
Orbital period
1,473.93 mins
BSTAR
0
Loading maneuver chart data...
Computing Atmospheric mass density...
Loading historical data...
Loading historical data...
Loading historical data...
Loading historical data...
Loading historical data...
Loading historical data...
Loading historical data...

Documentation

Showing up to 5 results
|